Wind_Speed
6 6 6 6 6 6 7 7 7 8 9 9 10 11 12 12 13 14 14 14 15 15 15 15 16 15 15 15 15 15 16 16 16 16 17 17 18 18 18 19 19 20 20
5 6 6 6 7 7 7 8 8 9 10 10 11 12 13 14 14 15 15 16 16 16 16 16 16 16 16 16 16 16 17 17 17 18 18 19 19 20 20 21 21 22 22
5 6 7 7 7 8 8 9 9 10 11 12 13 14 14 15 15 15 15 16 16 16 16 16 16 16 16 16 17 17 17 18 19 19 20 20 21 21 22 22 23 23 24
6 7 8 8 9 9 9 10 11 12 13 13 14 14 14 14 14 14 15 15 16 16 16 16 16 16 16 17 17 17 18 19 19 20 21 21 22 23 23 24 25 25 26
8 9 9 10 10 10 11 11 12 13 13 13 13 13 13 13 14 14 14 15 15 15 16 16 16 16 16 16 17 18 18 19 20 21 22 23 24 24 25 26 27 27 28
10 10 10 11 11 11 11 12 12 13 13 13 13 13 13 13 13 14 14 14 14 15 15 15 15 15 16 16 17 18 18 19 20 21 22 23 24 25 26 27 28 29 30
12 11 11 11 11 11 12 12 12 12 12 13 13 13 13 13 13 13 13 13 14 14 14 15 15 16 16 17 17 18 19 20 21 22 23 23 24 25 26 27 28 29 30
13 12 12 12 12 12 12 12 12 12 12 12 13 13 13 13 13 13 13 13 14 14 15 15 16 16 17 18 18 19 20 21 22 22 23 24 25 26 27 28 29 30 31
13 13 13 12 13 13 13 12 12 12 12 12 13 13 13 13 13 14 14 14 14 15 15 16 16 17 18 18 19 20 21 22 23 23 24 25 26 27 29 30 30 31 32
14 14 13 13 13 13 13 13 13 13 13 13 13 14 14 14 14 14 14 14 15 15 16 16 17 18 19 19 20 21 22 23 24 25 26 27 28 29 30 31 32 33 34
14 14 14 14 14 14 14 14 14 14 14 14 14 15 15 15 15 15 15 15 16 16 17 18 18 19 20 21 22 23 24 25 25 26 27 28 29 31 32 33 35 36 36
15 15 15 15 15 15 15 15 15 15 16 16 16 16 16 16 16 17 17 17 18 18 19 20 21 21 22 23 24 25 26 27 28 29 29 30 31 32 33 34 36 37 38
16 17 17 17 17 17 17 17 17 17 18 18 18 18 18 19 19 19 20 20 21 22 22 23 24 25 26 27 27 28 29 30 31 32 33 34 34 35 36 37 38 39 40
17 19 19 18 18 19 19 19 20 20 20 20 20 21 21 22 22 23 23 24 25 26 26 27 28 29 29 30 31 32 33 34 35 36 37 38 38 39 40 40 41 41 42
19 20 21 21 21 21 22 22 22 23 23 23 24 24 25 25 26 27 27 28 29 29 30 31 32 32 33 34 35 36 37 38 39 40 40 41 42 43 44 44 45 45 45
22 22 22 23 24 24 24 25 25 26 26 27 27 28 28 29 30 31 31 32 33 33 34 35 35 36 37 38 39 40 41 42 42 43 44 45 46 47 47 48 49 49 49
23 24 24 25 25 26 27 28 28 29 29 30 31 31 32 33 33 34 35 36 37 37 38 39 39 40 41 42 43 44 45 45 46 47 47 48 49 50 51 51 52 53 53
24 25 26 26 27 28 29 30 31 32 32 33 34 35 36 37 37 38 38 39 40 41 42 43 44 44 45 46 47 48 48 49 50 50 51 52 52 53 54 55 55 56 57
24 25 26 27 28 29 30 32 33 34 35 36 37 38 39 40 41 42 42 43 44 45 46 47 47 48 49 50 51 51 52 52 53 53 54 54 55 56 57 57 58 59 59
24 24 26 28 29 30 31 32 34 35 36 38 39 40 41 43 44 45 45 46 48 48 49 50 51 52 53 54 55 54 55 56 56 56 57 57 57 58 58 59 59 60 61
24 25 26 27 29 31 32 33 34 35 37 38 40 41 43 45 46 48 48 49 51 52 53 54 55 55 56 58 58 58 58 58 58 58 59 59 59 59 60 60 60 61 61
24 25 26 27 29 31 33 34 35 36 37 39 40 42 45 47 48 50 51 52 53 54 55 56 58 59 59 61 62 62 61 60 59 60 60 60 60 61 61 61 61 61 62
24 25 27 28 30 32 34 35 36 37 38 40 42 45 47 48 50 51 53 54 56 57 58 59 60 61 62 63 64 65 65 63 62 60 60 60 61 61 61 61 61 61 62
26 27 29 30 31 33 35 36 38 39 40 42 45 46 48 50 51 53 55 56 58 59 60 61 63 63 65 65 66 66 67 67 66 63 61 60 61 61 61 61 61 61 62
28 29 30 31 33 34 36 38 40 41 43 45 47 48 50 52 54 55 56 58 59 60 61 63 64 66 67 67 67 67 67 67 67 66 63 61 61 60 60 60 60 61 62
30 31 31 33 34 35 37 39 41 42 44 46 47 49 51 53 55 56 58 60 61 62 63 65 66 67 67 67 67 68 68 67 67 66 65 62 61 60 60 60 60 61 61
Wind_Direction
232 231 233 234 238 244 251 256 259 262 264 267 269 272 274 275 277 277 276 275 274 273 272 271 270 268 266 264 262 260 258 257 256 255 255 253 252 251 250 249 248 248 247
232 235 237 240 243 248 254 259 263 266 269 271 273 275 276 277 277 277 277 277 276 275 274 273 271 269 267 266 265 264 262 261 260 259 258 257 256 254 254 252 251 251 250
240 244 247 250 252 255 259 263 267 271 274 276 277 278 278 279 278 278 278 278 278 278 276 275 273 272 270 268 266 265 264 263 263 262 261 260 259 258 257 255 254 253 252
255 256 258 259 260 261 263 267 271 274 277 278 278 279 280 280 280 280 279 279 279 279 279 278 276 275 274 272 269 267 266 265 265 264 263 262 262 260 259 258 257 256 255
264 263 264 265 265 266 268 271 274 276 278 278 278 279 279 280 280 281 281 281 281 281 281 280 279 278 277 275 273 271 270 269 267 266 265 264 263 262 261 260 259 258 258
268 266 266 267 268 269 270 273 275 277 278 278 277 278 278 279 280 281 282 282 282 283 283 282 281 280 279 278 277 276 274 273 271 270 268 266 265 264 263 262 261 260 259
269 268 267 268 269 270 272 274 275 277 277 277 276 277 278 279 280 281 282 283 284 284 284 284 284 283 283 282 281 280 279 278 276 274 272 270 268 267 265 264 263 262 261
269 269 268 268 269 271 272 273 275 276 275 275 275 275 277 278 278 279 281 282 283 284 285 285 286 286 286 286 285 284 283 282 280 278 276 274 272 271 269 267 266 264 263
269 269 268 268 269 271 271 272 273 273 273 274 274 274 275 276 277 278 280 282 283 284 286 287 288 288 288 288 287 287 286 285 284 282 280 278 276 274 272 271 269 267 266
267 268 267 267 268 269 270 270 270 270 270 271 272 272 273 274 276 278 280 282 284 286 288 289 290 290 291 291 291 290 290 289 288 287 285 283 280 278 276 274 272 270 269
265 267 266 265 266 267 267 267 268 268 269 270 271 272 273 274 276 278 280 282 284 287 288 290 291 291 292 293 293 294 293 293 292 291 290 288 285 283 281 279 276 274 272
265 266 266 265 264 265 265 265 265 266 267 268 270 272 274 276 277 279 280 282 284 286 288 290 290 291 292 292 293 294 294 294 294 294 293 292 290 288 286 283 280 278 275
265 264 264 264 264 264 264 264 265 266 267 268 269 271 273 275 277 279 281 283 285 286 287 288 289 290 291 291 292 292 293 293 294 294 293 293 292 291 289 287 285 282 279
266 265 266 266 266 265 265 265 265 266 267 268 269 270 272 274 276 278 280 281 283 284 285 287 288 288 289 290 290 290 291 291 292 292 292 292 292 291 290 289 287 285 282
269 267 267 268 267 266 266 265 265 266 267 269 270 270 272 273 275 277 278 279 281 282 283 285 286 287 288 288 289 289 290 290 290 290 291 291 290 290 290 289 288 286 284
272 268 266 266 265 266 266 266 266 267 268 269 270 271 272 273 274 276 277 278 279 281 282 283 284 285 286 287 287 288 288 289 289 289 289 290 290 289 289 288 288 287 286
274 270 267 265 265 265 266 266 267 268 268 269 270 271 272 272 273 274 275 276 278 279 281 282 283 283 284 285 286 287 287 288 289 289 289 289 289 288 288 287 287 286 285
276 274 271 269 266 265 266 267 268 269 269 270 270 271 272 273 274 274 275 276 277 279 280 281 282 282 283 284 285 286 287 287 288 288 288 288 288 287 287 287 286 285 284
276 275 274 272 270 268 268 268 268 268 269 269 271 272 273 274 275 275 276 276 277 278 279 281 281 282 283 284 284 285 286 287 287 287 287 287 287 287 287 286 285 284 284
278 276 275 274 273 273 272 271 270 270 270 271 272 273 274 274 275 275 276 277 278 279 279 280 281 282 282 283 284 285 286 286 286 287 286 286 287 287 286 286 285 284 283
281 279 278 277 276 276 275 274 273 273 273 274 273 274 274 274 275 276 277 278 279 279 279 280 281 282 282 283 284 285 285 286 286 286 286 286 287 286 286 285 284 283 282
284 282 279 278 277 277 276 276 276 275 275 275 275 275 275 276 277 278 279 279 280 280 281 281 281 282 282 283 284 285 285 286 286 286 286 286 286 286 285 285 283 282 281
287 285 283 281 279 278 278 277 277 277 277 277 276 276 278 279 280 280 280 281 281 281 281 282 282 283 283 284 285 286 286 286 284 284 284 285 285 285 284 284 283 282 281
289 287 286 284 282 281 280 280 279 279 279 278 278 279 279 280 280 280 281 281 281 282 282 282 283 283 283 284 284 285 286 286 286 285 284 283 283 283 283 282 282 281 280
291 289 288 287 286 285 284 284 283 283 282 282 282 281 281 281 281 281 281 281 282 282 282 282 282 283 283 284 284 285 285 285 286 286 284 282 282 282 281 282 281 281 280
294 293 291 290 289 289 288 287 287 286 285 285 284 284 283 282 282 282 281 281 281 281 282 282 282 282 283 283 283 284 284 284 285 284 283 282 281 281 280 281 281 280 280
Height
5871 5871 5871 5872 5872 5872 5872 5872 5872 5872 5873 5873 5873 5873 5873 5872 5872 5872 5872 5871 5871 5871 5871 5871 5871 5871 5871 5871 5871 5871 5872 5872 5872 5872 5873 5873 5874 5874 5874 5875 5876 5876 5877
5870 5870 5870 5870 5870 5870 5871 5871 5871 5871 5871 5871 5871 5871 5871 5870 5870 5869 5869 5869 5868 5868 5868 5867 5867 5867 5868 5868 5868 5868 5868 5868 5869 5869 5869 5870 5870 5870 5871 5871 5872 5872 5873
5869 5869 5869 5869 5869 5869 5869 5869 5869 5869 5869 5869 5868 5868 5868 5867 5867 5867 5866 5865 5865 5865 5864 5864 5864 5864 5864 5864 5864 5864 5864 5864 5865 5865 5865 5866 5866 5866 5867 5867 5868 5868 5869
5868 5868 5868 5868 5868 5867 5867 5867 5867 5867 5867 5866 5866 5865 5865 5864 5864 5864 5863 5862 5862 5862 5861 5861 5861 5860 5860 5860 5860 5860 5860 5861 5861 5861 5861 5862 5862 5862 5862 5863 5863 5864 5864
5866 5866 5866 5866 5866 5865 5865 5865 5865 5864 5864 5864 5863 5863 5862 5862 5861 5861 5860 5860 5859 5859 5858 5858 5857 5857 5857 5857 5856 5856 5856 5856 5857 5857 5857 5857 5857 5857 5857 5858 5858 5858 5859
5864 5864 5864 5864 5863 5863 5863 5863 5862 5862 5861 5861 5861 5860 5860 5859 5859 5858 5858 5857 5856 5856 5855 5854 5854 5854 5853 5853 5853 5852 5852 5852 5852 5852 5852 5852 5852 5852 5852 5852 5853 5853 5853
5862 5861 5861 5861 5861 5860 5860 5860 5859 5859 5859 5858 5858 5858 5857 5857 5856 5855 5855 5854 5854 5853 5852 5852 5851 5850 5850 5849 5849 5848 5848 5848 5848 5847 5847 5847 5847 5847 5847 5847 5847 5847 5847
5859 5858 5858 5858 5858 5858 5857 5857 5857 5856 5856 5856 5855 5855 5854 5854 5853 5853 5852 5851 5851 5850 5849 5848 5848 5847 5846 5845 5845 5844 5844 5843 5843 5842 5842 5842 5841 5841 5841 5841 5841 5841 5841
5856 5855 5855 5855 5855 5855 5854 5854 5854 5853 5853 5853 5852 5852 5851 5851 5850 5849 5849 5848 5847 5847 5846 5845 5844 5843 5842 5842 5841 5840 5839 5838 5838 5837 5836 5836 5835 5835 5834 5834 5834 5834 5834
5853 5852 5852 5852 5852 5851 5851 5851 5850 5850 5850 5849 5849 5849 5848 5847 5847 5846 5845 5845 5844 5843 5842 5841 5840 5839 5838 5837 5836 5835 5834 5833 5832 5831 5831 5830 5829 5828 5828 5827 5827 5827 5827
5849 5849 5848 5848 5848 5848 5847 5847 5847 5847 5846 5846 5846 5845 5845 5844 5843 5843 5842 5841 5840 5839 5838 5837 5836 5835 5834 5832 5831 5830 5829 5828 5827 5825 5824 5823 5822 5821 5821 5820 5819 5819 5818
5846 5845 5845 5844 5844 5844 5844 5843 5843 5843 5843 5842 5842 5841 5841 5840 5839 5838 5837 5837 5836 5834 5833 5832 5831 5830 5828 5827 5826 5824 5823 5822 5820 5819 5818 5816 5815 5814 5813 5812 5811 5810 5810
5842 5841 5841 5840 5840 5840 5840 5839 5839 5839 5838 5838 5837 5837 5836 5835 5835 5834 5833 5832 5831 5829 5828 5827 5826 5824 5823 5821 5820 5818 5817 5815 5814 5812 5810 5809 5807 5806 5805 5804 5802 5801 5801
5838 5837 5837 5836 5836 5836 5835 5835 5835 5834 5834 5833 5833 5832 5831 5830 5829 5829 5828 5826 5825 5824 5822 5821 5819 5818 5816 5815 5813 5812 5810 5808 5806 5805 5803 5801 5799 5798 5796 5795 5793 5792 5791
5833 5833 5832 5832 5831 5831 5831 5830 5830 5829 5829 5828 5827 5827 5826 5825 5824 5823 5821 5820 5819 5817 5816 5814 5812 5811 5809 5807 5806 5804 5802 5800 5798 5796 5794 5792 5790 5788 5787 5785 5783 5782 5780
5828 5828 5828 5827 5826 5825 5825 5824 5824 5823 5823 5822 5821 5820 5820 5818 5817 5816 5814 5813 5811 5810 5808 5807 5805 5803 5801 5799 5797 5795 5793 5791 5789 5787 5785 5783 5780 5778 5776 5774 5772 5771 5769
5822 5822 5822 5821 5821 5820 5819 5818 5818 5817 5816 5815 5814 5813 5813 5811 5810 5809 5807 5805 5803 5802 5800 5799 5796 5794 5792 5790 5788 5786 5784 5782 5779 5777 5775 5772 5770 5768 5765 5763 5761 5759 5757
5816 5815 5815 5815 5815 5814 5813 5812 5811 5810 5809 5808 5807 5806 5804 5803 5802 5800 5799 5797 5795 5793 5791 5789 5787 5785 5782 5780 5778 5776 5773 5771 5769 5766 5764 5761 5758 5756 5753 5751 5748 5746 5744
5810 5809 5808 5808 5807 5807 5806 5806 5805 5804 5803 5801 5799 5798 5796 5794 5793 5791 5790 5788 5785 5784 5781 5779 5777 5774 5772 5769 5767 5765 5762 5760 5757 5754 5752 5749 5746 5743 5740 5737 5735 5732 5730
5805 5803 5802 5801 5800 5799 5799 5798 5797 5796 5795 5793 5792 5790 5788 5786 5783 5781 5780 5778 5775 5773 5771 5768 5766 5763 5760 5757 5755 5753 5751 5748 5745 5742 5739 5736 5733 5729 5726 5723 5721 5718 5715
5799 5797 5796 5794 5793 5791 5790 5790 5789 5788 5786 5785 5783 5781 5778 5776 5773 5771 5769 5767 5764 5762 5759 5757 5754 5751 5748 5744 5742 5740 5738 5735 5732 5728 5725 5722 5719 5715 5712 5709 5706 5703 5700
5793 5791 5789 5788 5786 5784 5782 5781 5780 5778 5777 5775 5773 5771 5768 5765 5763 5760 5758 5756 5752 5750 5747 5744 5741 5738 5735 5730 5727 5724 5724 5723 5719 5714 5711 5707 5704 5700 5697 5693 5690 5687 5684
5786 5785 5783 5781 5779 5777 5774 5773 5771 5769 5767 5765 5762 5760 5757 5755 5752 5749 5746 5743 5740 5737 5734 5730 5727 5723 5720 5717 5713 5709 5706 5706 5704 5702 5697 5693 5689 5685 5681 5677 5674 5671 5668
5779 5777 5775 5773 5771 5768 5766 5764 5762 5759 5757 5755 5752 5749 5746 5743 5740 5737 5733 5730 5726 5723 5720 5716 5712 5708 5704 5701 5698 5694 5690 5687 5684 5684 5683 5679 5674 5670 5665 5662 5659 5655 5652
5772 5769 5767 5764 5762 5760 5757 5755 5752 5749 5747 5744 5741 5738 5734 5731 5727 5724 5720 5716 5712 5709 5705 5701 5697 5693 5689 5685 5682 5678 5674 5670 5666 5663 5663 5662 5658 5654 5649 5645 5642 5639 5635
5764 5761 5758 5756 5753 5750 5748 5745 5742 5739 5735 5732 5729 5725 5721 5718 5714 5710 5705 5701 5697 5694 5690 5685 5681 5677 5673 5669 5665 5661 5657 5654 5650 5645 5643 5642 5640 5637 5632 5629 5626 5622 5619